2019-305T00:02:16.674,   1,   3,   1,   120,   4,          0,     12.920,  47484.605,    41.434,    -7.876,    23.981,    17.749, 3, 1.000E+00,  1.00,  78,  5.865E-03,  7.188E-03, -9.999E+09, -9.999E+09, -9.999E+09, -9.999E+09, -9.999E+09, -9.999E+09, -9.999E+09, -9.999E+09, -9.999E+09, -9.999E+09, -9.999E+09, -9.999E+09, -9.999E+09, -9.999E+09, -9.999E+09, -9.999E+09, 255
2019-305T00:04:16.676,   1,   3,   1,   120,   4,          0,     12.920,  47484.605,    41.422,    -7.873,    23.981,    16.539, 3, 1.000E+00,  1.00,  78,  5.479E-03,  7.187E-03, -9.999E+09, -9.999E+09, -9.999E+09, -9.999E+09, -9.999E+09, -9.999E+09, -9.999E+09, -9.999E+09, -9.999E+09, -9.999E+09, -9.999E+09, -9.999E+09, -9.999E+09, -9.999E+09, -9.999E+09, -9.999E+09, 255
2019-305T00:06:16.677,   1,   3,   1,   120,   4,          0,     12.920,  47484.605,    41.410,    -7.870,    23.981,    15.329, 3, 1.000E+00,  1.00,  78,  5.903E-03,  7.187E-03, -9.999E+09, -9.999E+09, -9.999E+09, -9.999E+09, -9.999E+09, -9.999E+09, -9.999E+09, -9.999E+09, -9.999E+09, -9.999E+09, -9.999E+09, -9.999E+09, -9.999E+09, -9.999E+09, -9.999E+09, -9.999E+09, 255
2019-305T00:08:16.679,   1,   3,   1,   120,   4,          0,     12.920,  47484.605,    41.398,    -7.867,    23.981,    14.119, 3, 1.000E+00,  1.00,  78,  7.319E-03,  7.188E-03, -9.999E+09, -9.999E+09, -9.999E+09, -9.999E+09, -9.999E+09, -9.999E+09, -9.999E+09, -9.999E+09, -9.999E+09, -9.999E+09, -9.999E+09, -9.999E+09, -9.999E+09, -9.999E+09, -9.999E+09, -9.999E+09, 255
2019-305T00:10:16.680,   1,   3,   1,   120,   4,          0,     12.920,  47484.605,    41.386,    -7.863,    23.981,    12.909, 3, 1.000E+00,  1.00,  78,  8.695E-03,  7.189E-03, -9.999E+09, -9.999E+09, -9.999E+09, -9.999E+09, -9.999E+09, -9.999E+09, -9.999E+09, -9.999E+09, -9.999E+09, -9.999E+09, -9.999E+09, -9.999E+09, -9.999E+09, -9.999E+09, -9.999E+09, -9.999E+09, 255
2019-305T00:12:16.681,   1,   3,   1,   120,   4,          0,     12.920,  47484.605,    41.374,    -7.860,    23.981,    11.699, 3, 1.000E+00,  1.00,  78,  6.115E-03,  7.188E-03, -9.999E+09, -9.999E+09, -9.999E+09, -9.999E+09, -9.999E+09, -9.999E+09, -9.999E+09, -9.999E+09, -9.999E+09, -9.999E+09, -9.999E+09, -9.999E+09, -9.999E+09, -9.999E+09, -9.999E+09, -9.999E+09, 255
2019-305T00:14:16.683,   1,   3,   1,   120,   4,          0,     12.920,  47484.605,    41.362,    -7.857,    23.981,    10.489, 3, 1.000E+00,  1.00,  78,  5.271E-03,  7.188E-03, -9.999E+09, -9.999E+09, -9.999E+09, -9.999E+09, -9.999E+09, -9.999E+09, -9.999E+09, -9.999E+09, -9.999E+09, -9.999E+09, -9.999E+09, -9.999E+09, -9.999E+09, -9.999E+09, -9.999E+09, -9.999E+09, 255
2019-305T00:16:16.684,   1,   3,   1,   120,   4,          0,     12.920,  47484.605,    41.349,    -7.854,    23.981,     9.279, 3, 1.000E+00,  1.00,  78,  3.831E-03,  7.187E-03, -9.999E+09, -9.999E+09, -9.999E+09, -9.999E+09, -9.999E+09, -9.999E+09, -9.999E+09, -9.999E+09, -9.999E+09, -9.999E+09, -9.999E+09, -9.999E+09, -9.999E+09, -9.999E+09, -9.999E+09, -9.999E+09, 255
2019-305T00:18:16.686,   1,   3,   1,   120,   4,          0,     12.920,  47484.605,    41.337,    -7.850,    23.981,     8.069, 3, 1.000E+00,  1.00,  78,  5.001E-03,  7.188E-03, -9.999E+09, -9.999E+09, -9.999E+09, -9.999E+09, -9.999E+09, -9.999E+09, -9.999E+09, -9.999E+09, -9.999E+09, -9.999E+09, -9.999E+09, -9.999E+09, -9.999E+09, -9.999E+09, -9.999E+09, -9.999E+09, 255
2019-305T00:20:16.687,   1,   3,   1,   120,   4,          0,     12.920,  47484.605,    41.325,    -7.847,    23.981,     6.858, 3, 1.000E+00,  1.00,  78,  7.110E-03,  7.189E-03, -9.999E+09, -9.999E+09, -9.999E+09, -9.999E+09, -9.999E+09, -9.999E+09, -9.999E+09, -9.999E+09, -9.999E+09, -9.999E+09, -9.999E+09, -9.999E+09, -9.999E+09, -9.999E+09, -9.999E+09, -9.999E+09, 255
2019-305T00:22:16.688,   1,   3,   1,   120,   4,          0,     12.920,  47484.605,    41.313,    -7.844,    23.981,     5.648, 3, 1.000E+00,  1.00,  78,  7.276E-03,  7.188E-03, -9.999E+09, -9.999E+09, -9.999E+09, -9.999E+09, -9.999E+09, -9.999E+09, -9.999E+09, -9.999E+09, -9.999E+09, -9.999E+09, -9.999E+09, -9.999E+09, -9.999E+09, -9.999E+09, -9.999E+09, -9.999E+09, 255
2019-305T00:24:16.690,   1,   3,   1,   120,   4,          0,     12.920,  47484.605,    41.301,    -7.841,    23.981,     4.438, 3, 1.000E+00,  1.00,  78,  6.999E-03,  7.188E-03, -9.999E+09, -9.999E+09, -9.999E+09, -9.999E+09, -9.999E+09, -9.999E+09, -9.999E+09, -9.999E+09, -9.999E+09, -9.999E+09, -9.999E+09, -9.999E+09, -9.999E+09, -9.999E+09, -9.999E+09, -9.999E+09, 255
2019-305T00:26:16.691,   1,   3,   1,   120,   4,          0,     12.920,  47484.605,    41.289,    -7.837,    23.980,     3.228, 3, 1.000E+00,  1.00,  78,  7.938E-03,  7.189E-03, -9.999E+09, -9.999E+09, -9.999E+09, -9.999E+09, -9.999E+09, -9.999E+09, -9.999E+09, -9.999E+09, -9.999E+09, -9.999E+09, -9.999E+09, -9.999E+09, -9.999E+09, -9.999E+09, -9.999E+09, -9.999E+09, 255
2019-305T00:28:16.692,   1,   3,   1,   120,   4,          0,     12.920,  47484.605,    41.276,    -7.834,    23.980,     2.018, 3, 1.000E+00,  1.00,  78,  7.372E-03,  7.188E-03, -9.999E+09, -9.999E+09, -9.999E+09, -9.999E+09, -9.999E+09, -9.999E+09, -9.999E+09, -9.999E+09, -9.999E+09, -9.999E+09, -9.999E+09, -9.999E+09, -9.999E+09, -9.999E+09, -9.999E+09, -9.999E+09, 255
2019-305T00:30:16.694,   1,   3,   1,   120,   4,          0,     12.920,  47484.605,    41.264,    -7.831,    23.980,     0.808, 3, 1.000E+00,  1.00,  78,  7.911E-03,  7.189E-03, -9.999E+09, -9.999E+09, -9.999E+09, -9.999E+09, -9.999E+09, -9.999E+09, -9.999E+09, -9.999E+09, -9.999E+09, -9.999E+09, -9.999E+09, -9.999E+09, -9.999E+09, -9.999E+09, -9.999E+09, -9.999E+09, 255
2019-305T00:32:16.695,   1,   3,   1,   120,   4,          0,     12.920,  47484.605,    41.252,    -7.828,    23.980,   359.598, 3, 1.000E+00,  1.00,  78,  6.990E-03,  7.188E-03, -9.999E+09, -9.999E+09, -9.999E+09, -9.999E+09, -9.999E+09, -9.999E+09, -9.999E+09, -9.999E+09, -9.999E+09, -9.999E+09, -9.999E+09, -9.999E+09, -9.999E+09, -9.999E+09, -9.999E+09, -9.999E+09, 255
2019-305T00:34:16.697,   1,   3,   1,   120,   4,          0,     12.920,  47484.605,    41.240,    -7.824,    23.980,   358.388, 3, 1.000E+00,  1.00,  78,  5.386E-03,  7.187E-03, -9.999E+09, -9.999E+09, -9.999E+09, -9.999E+09, -9.999E+09, -9.999E+09, -9.999E+09, -9.999E+09, -9.999E+09, -9.999E+09, -9.999E+09, -9.999E+09, -9.999E+09, -9.999E+09, -9.999E+09, -9.999E+09, 255
2019-305T00:36:16.698,   1,   3,   1,   120,   4,          0,     12.920,  47484.605,    41.228,    -7.821,    23.980,   357.178, 3, 1.000E+00,  1.00,  78,  5.480E-03,  7.187E-03, -9.999E+09, -9.999E+09, -9.999E+09, -9.999E+09, -9.999E+09, -9.999E+09, -9.999E+09, -9.999E+09, -9.999E+09, -9.999E+09, -9.999E+09, -9.999E+09, -9.999E+09, -9.999E+09, -9.999E+09, -9.999E+09, 255
2019-305T00:38:16.699,   1,   3,   1,   120,   4,          0,     12.920,  47484.605,    41.216,    -7.818,    23.980,   355.968, 3, 1.000E+00,  1.00,  78,  6.325E-03,  7.187E-03, -9.999E+09, -9.999E+09, -9.999E+09, -9.999E+09, -9.999E+09, -9.999E+09, -9.999E+09, -9.999E+09, -9.999E+09, -9.999E+09, -9.999E+09, -9.999E+09, -9.999E+09, -9.999E+09, -9.999E+09, -9.999E+09, 255
2019-305T00:40:16.701,   1,   3,   1,   120,   4,          0,     12.920,  47484.605,    41.203,    -7.814,    23.980,   354.758, 3, 1.000E+00,  1.00,  78,  4.578E-03,  7.187E-03, -9.999E+09, -9.999E+09, -9.999E+09, -9.999E+09, -9.999E+09, -9.999E+09, -9.999E+09, -9.999E+09, -9.999E+09, -9.999E+09, -9.999E+09, -9.999E+09, -9.999E+09, -9.999E+09, -9.999E+09, -9.999E+09, 255
2019-305T00:42:16.702,   1,   3,   1,   120,   4,          0,     12.920,  47484.605,    41.191,    -7.811,    23.980,   353.548, 3, 1.000E+00,  1.00,  78,  4.612E-03,  7.187E-03, -9.999E+09, -9.999E+09, -9.999E+09, -9.999E+09, -9.999E+09, -9.999E+09, -9.999E+09, -9.999E+09, -9.999E+09, -9.999E+09, -9.999E+09, -9.999E+09, -9.999E+09, -9.999E+09, -9.999E+09, -9.999E+09, 255
2019-305T00:44:16.704,   1,   3,   1,   120,   4,          0,     12.920,  47484.605,    41.179,    -7.808,    23.980,   352.338, 3, 1.000E+00,  1.00,  78,  5.132E-03,  7.187E-03, -9.999E+09, -9.999E+09, -9.999E+09, -9.999E+09, -9.999E+09, -9.999E+09, -9.999E+09, -9.999E+09, -9.999E+09, -9.999E+09, -9.999E+09, -9.999E+09, -9.999E+09, -9.999E+09, -9.999E+09, -9.999E+09, 255
2019-305T00:46:16.705,   1,   3,   1,   120,   4,          0,     12.920,  47484.605,    41.167,    -7.805,    23.980,   351.128, 3, 1.000E+00,  1.00,  78,  5.673E-03,  7.188E-03, -9.999E+09, -9.999E+09, -9.999E+09, -9.999E+09, -9.999E+09, -9.999E+09, -9.999E+09, -9.999E+09, -9.999E+09, -9.999E+09, -9.999E+09, -9.999E+09, -9.999E+09, -9.999E+09, -9.999E+09, -9.999E+09, 255
2019-305T00:48:16.706,   1,   3,   1,   120,   4,          0,     12.920,  47484.605,    41.155,    -7.801,    23.980,   349.918, 3, 1.000E+00,  1.00,  78,  6.597E-03,  7.189E-03, -9.999E+09, -9.999E+09, -9.999E+09, -9.999E+09, -9.999E+09, -9.999E+09, -9.999E+09, -9.999E+09, -9.999E+09, -9.999E+09, -9.999E+09, -9.999E+09, -9.999E+09, -9.999E+09, -9.999E+09, -9.999E+09, 255
2019-305T00:50:16.708,   1,   3,   1,   120,   4,          0,     12.920,  47484.605,    41.143,    -7.798,    23.979,   348.708, 3, 1.000E+00,  1.00,  78,  5.063E-03,  7.187E-03, -9.999E+09, -9.999E+09, -9.999E+09, -9.999E+09, -9.999E+09, -9.999E+09, -9.999E+09, -9.999E+09, -9.999E+09, -9.999E+09, -9.999E+09, -9.999E+09, -9.999E+09, -9.999E+09, -9.999E+09, -9.999E+09, 255
2019-305T00:52:16.709,   1,   3,   1,   120,   4,          0,     12.920,  47484.605,    41.130,    -7.795,    23.979,   347.498, 3, 1.000E+00,  1.00,  78,  5.655E-03,  7.187E-03, -9.999E+09, -9.999E+09, -9.999E+09, -9.999E+09, -9.999E+09, -9.999E+09, -9.999E+09, -9.999E+09, -9.999E+09, -9.999E+09, -9.999E+09, -9.999E+09, -9.999E+09, -9.999E+09, -9.999E+09, -9.999E+09, 255
2019-305T00:54:16.711,   1,   3,   1,   120,   4,          0,     12.920,  47484.605,    41.118,    -7.791,    23.979,   346.288, 3, 1.000E+00,  1.00,  78,  5.359E-03,  7.187E-03, -9.999E+09, -9.999E+09, -9.999E+09, -9.999E+09, -9.999E+09, -9.999E+09, -9.999E+09, -9.999E+09, -9.999E+09, -9.999E+09, -9.999E+09, -9.999E+09, -9.999E+09, -9.999E+09, -9.999E+09, -9.999E+09, 255
2019-305T00:56:16.712,   1,   3,   1,   120,   4,          0,     12.920,  47484.605,    41.106,    -7.788,    23.979,   345.078, 3, 1.000E+00,  1.00,  78,  6.412E-03,  7.188E-03, -9.999E+09, -9.999E+09, -9.999E+09, -9.999E+09, -9.999E+09, -9.999E+09, -9.999E+09, -9.999E+09, -9.999E+09, -9.999E+09, -9.999E+09, -9.999E+09, -9.999E+09, -9.999E+09, -9.999E+09, -9.999E+09, 255
2019-305T00:58:16.713,   1,   3,   1,   120,   4,          0,     12.920,  47484.605,    41.094,    -7.785,    23.979,   343.868, 3, 1.000E+00,  1.00,  78,  6.217E-03,  7.187E-03, -9.999E+09, -9.999E+09, -9.999E+09, -9.999E+09, -9.999E+09, -9.999E+09, -9.999E+09, -9.999E+09, -9.999E+09, -9.999E+09, -9.999E+09, -9.999E+09, -9.999E+09, -9.999E+09, -9.999E+09, -9.999E+09, 255
2019-305T01:00:16.715,   1,   3,   1,   120,   4,          0,     12.920,  47484.605,    41.082,    -7.781,    23.979,   342.658, 3, 1.000E+00,  1.00,  78,  8.656E-03,  7.188E-03, -9.999E+09, -9.999E+09, -9.999E+09, -9.999E+09, -9.999E+09, -9.999E+09, -9.999E+09, -9.999E+09, -9.999E+09, -9.999E+09, -9.999E+09, -9.999E+09, -9.999E+09, -9.999E+09, -9.999E+09, -9.999E+09, 255
2019-305T01:02:16.716,   1,   3,   1,   120,   4,          0,     12.920,  47484.605,    41.069,    -7.778,    23.979,   341.448, 3, 1.000E+00,  1.00,  78,  1.368E-02,  7.190E-03, -9.999E+09, -9.999E+09, -9.999E+09, -9.999E+09, -9.999E+09, -9.999E+09, -9.999E+09, -9.999E+09, -9.999E+09, -9.999E+09, -9.999E+09, -9.999E+09, -9.999E+09, -9.999E+09, -9.999E+09, -9.999E+09, 255
2019-305T01:04:16.717,   1,   3,   1,   120,   4,          0,     12.920,  47484.605,    41.057,    -7.775,    23.979,   340.238, 3, 1.000E+00,  1.00,  78,  1.376E-02,  7.190E-03, -9.999E+09, -9.999E+09, -9.999E+09, -9.999E+09, -9.999E+09, -9.999E+09, -9.999E+09, -9.999E+09, -9.999E+09, -9.999E+09, -9.999E+09, -9.999E+09, -9.999E+09, -9.999E+09, -9.999E+09, -9.999E+09, 255
2019-305T01:06:16.719,   1,   3,   1,   120,   4,          0,     12.920,  47484.605,    41.045,    -7.772,    23.979,   339.028, 3, 1.000E+00,  1.00,  78,  1.159E-02,  7.190E-03, -9.999E+09, -9.999E+09, -9.999E+09, -9.999E+09, -9.999E+09, -9.999E+09, -9.999E+09, -9.999E+09, -9.999E+09, -9.999E+09, -9.999E+09, -9.999E+09, -9.999E+09, -9.999E+09, -9.999E+09, -9.999E+09, 255
2019-305T01:08:16.720,   1,   3,   1,   120,   4,          0,     12.920,  47484.605,    41.033,    -7.768,    23.979,   337.818, 3, 1.000E+00,  1.00,  78,  5.851E-03,  7.187E-03, -9.999E+09, -9.999E+09, -9.999E+09, -9.999E+09, -9.999E+09, -9.999E+09, -9.999E+09, -9.999E+09, -9.999E+09, -9.999E+09, -9.999E+09, -9.999E+09, -9.999E+09, -9.999E+09, -9.999E+09, -9.999E+09, 255
2019-305T01:10:16.722,   1,   3,   1,   120,   4,          0,     12.920,  47484.605,    41.021,    -7.765,    23.979,   336.607, 3, 1.000E+00,  1.00,  78,  9.830E-03,  7.189E-03, -9.999E+09, -9.999E+09, -9.999E+09, -9.999E+09, -9.999E+09, -9.999E+09, -9.999E+09, -9.999E+09, -9.999E+09, -9.999E+09, -9.999E+09, -9.999E+09, -9.999E+09, -9.999E+09, -9.999E+09, -9.999E+09, 255
2019-305T01:12:16.723,   1,   3,   1,   120,   4,          0,     12.920,  47484.605,    41.008,    -7.762,    23.979,   335.397, 3, 1.000E+00,  1.00,  78,  1.709E-02,  7.193E-03, -9.999E+09, -9.999E+09, -9.999E+09, -9.999E+09, -9.999E+09, -9.999E+09, -9.999E+09, -9.999E+09, -9.999E+09, -9.999E+09, -9.999E+09, -9.999E+09, -9.999E+09, -9.999E+09, -9.999E+09, -9.999E+09, 255
2019-305T01:14:16.724,   1,   3,   1,   120,   4,          0,     12.920,  47484.605,    40.996,    -7.758,    23.979,   334.187, 3, 1.000E+00,  1.00,  78,  2.240E-02,  7.195E-03, -9.999E+09, -9.999E+09, -9.999E+09, -9.999E+09, -9.999E+09, -9.999E+09, -9.999E+09, -9.999E+09, -9.999E+09, -9.999E+09, -9.999E+09, -9.999E+09, -9.999E+09, -9.999E+09, -9.999E+09, -9.999E+09, 255
2019-305T01:16:16.726,   1,   3,   1,   120,   4,          0,     12.920,  47484.605,    40.984,    -7.755,    23.979,   332.977, 3, 1.000E+00,  1.00,  78,  4.201E-02,  7.214E-03, -9.999E+09, -9.999E+09, -9.999E+09, -9.999E+09, -9.999E+09, -9.999E+09, -9.999E+09, -9.999E+09, -9.999E+09, -9.999E+09, -9.999E+09, -9.999E+09, -9.999E+09, -9.999E+09, -9.999E+09, -9.999E+09, 255
2019-305T01:18:16.727,   1,   3,   1,   120,   4,          0,     12.920,  47484.605,    40.972,    -7.752,    23.979,   331.767, 3, 1.000E+00,  1.00,  78,  5.337E-02,  7.228E-03, -9.999E+09, -9.999E+09, -9.999E+09, -9.999E+09, -9.999E+09, -9.999E+09, -9.999E+09, -9.999E+09, -9.999E+09, -9.999E+09, -9.999E+09, -9.999E+09, -9.999E+09, -9.999E+09, -9.999E+09, -9.999E+09, 255
2019-305T01:20:16.728,   1,   3,   1,   120,   4,          0,     12.920,  47484.605,    40.959,    -7.748,    23.978,   330.557, 3, 1.000E+00,  1.00,  78,  2.764E-02,  7.199E-03, -9.999E+09, -9.999E+09, -9.999E+09, -9.999E+09, -9.999E+09, -9.999E+09, -9.999E+09, -9.999E+09, -9.999E+09, -9.999E+09, -9.999E+09, -9.999E+09, -9.999E+09, -9.999E+09, -9.999E+09, -9.999E+09, 255
2019-305T01:22:16.730,   1,   3,   1,   120,   4,          0,     12.920,  47484.605,    40.947,    -7.745,    23.978,   329.347, 3, 1.000E+00,  1.00,  78,  3.050E-02,  7.202E-03, -9.999E+09, -9.999E+09, -9.999E+09, -9.999E+09, -9.999E+09, -9.999E+09, -9.999E+09, -9.999E+09, -9.999E+09, -9.999E+09, -9.999E+09, -9.999E+09, -9.999E+09, -9.999E+09, -9.999E+09, -9.999E+09, 255
2019-305T01:24:16.731,   1,   3,   1,   120,   4,          0,     12.920,  47484.605,    40.935,    -7.742,    23.978,   328.137, 3, 1.000E+00,  1.00,  78,  4.183E-02,  7.213E-03, -9.999E+09, -9.999E+09, -9.999E+09, -9.999E+09, -9.999E+09, -9.999E+09, -9.999E+09, -9.999E+09, -9.999E+09, -9.999E+09, -9.999E+09, -9.999E+09, -9.999E+09, -9.999E+09, -9.999E+09, -9.999E+09, 255
2019-305T01:26:16.733,   1,   3,   1,   120,   4,          0,     12.920,  47484.605,    40.923,    -7.738,    23.978,   326.927, 3, 1.000E+00,  1.00,  78,  5.191E-02,  7.225E-03, -9.999E+09, -9.999E+09, -9.999E+09, -9.999E+09, -9.999E+09, -9.999E+09, -9.999E+09, -9.999E+09, -9.999E+09, -9.999E+09, -9.999E+09, -9.999E+09, -9.999E+09, -9.999E+09, -9.999E+09, -9.999E+09, 255
2019-305T01:28:16.734,   1,   3,   1,   120,   4,          0,     12.920,  47484.605,    40.910,    -7.735,    23.978,   325.717, 3, 1.000E+00,  1.00,  78,  2.886E-02,  7.200E-03, -9.999E+09, -9.999E+09, -9.999E+09, -9.999E+09, -9.999E+09, -9.999E+09, -9.999E+09, -9.999E+09, -9.999E+09, -9.999E+09, -9.999E+09, -9.999E+09, -9.999E+09, -9.999E+09, -9.999E+09, -9.999E+09, 255
2019-305T01:30:16.735,   1,   3,   1,   120,   4,          0,     12.920,  47484.605,    40.898,    -7.732,    23.978,   324.507, 3, 1.000E+00,  1.00,  78,  3.862E-02,  7.211E-03, -9.999E+09, -9.999E+09, -9.999E+09, -9.999E+09, -9.999E+09, -9.999E+09, -9.999E+09, -9.999E+09, -9.999E+09, -9.999E+09, -9.999E+09, -9.999E+09, -9.999E+09, -9.999E+09, -9.999E+09, -9.999E+09, 255
2019-305T01:32:16.737,   1,   3,   1,   120,   4,          0,     12.920,  47484.605,    40.886,    -7.728,    23.978,   323.297, 3, 1.000E+00,  1.00,  78,  4.557E-02,  7.218E-03, -9.999E+09, -9.999E+09, -9.999E+09, -9.999E+09, -9.999E+09, -9.999E+09, -9.999E+09, -9.999E+09, -9.999E+09, -9.999E+09, -9.999E+09, -9.999E+09, -9.999E+09, -9.999E+09, -9.999E+09, -9.999E+09, 255
2019-305T01:34:16.738,   1,   3,   1,   120,   4,          0,     12.920,  47484.605,    40.874,    -7.725,    23.978,   322.087, 3, 1.000E+00,  1.00,  78,  4.667E-02,  7.219E-03, -9.999E+09, -9.999E+09, -9.999E+09, -9.999E+09, -9.999E+09, -9.999E+09, -9.999E+09, -9.999E+09, -9.999E+09, -9.999E+09, -9.999E+09, -9.999E+09, -9.999E+09, -9.999E+09, -9.999E+09, -9.999E+09, 255
2019-305T01:36:16.740,   1,   3,   1,   120,   4,          0,     12.920,  47484.605,    40.861,    -7.722,    23.978,   320.877, 3, 1.000E+00,  1.00,  78,  2.834E-02,  7.201E-03, -9.999E+09, -9.999E+09, -9.999E+09, -9.999E+09, -9.999E+09, -9.999E+09, -9.999E+09, -9.999E+09, -9.999E+09, -9.999E+09, -9.999E+09, -9.999E+09, -9.999E+09, -9.999E+09, -9.999E+09, -9.999E+09, 255
2019-305T01:38:16.741,   1,   3,   1,   120,   4,          0,     12.920,  47484.605,    40.849,    -7.718,    23.978,   319.667, 3, 1.000E+00,  1.00,  78,  1.880E-02,  7.192E-03, -9.999E+09, -9.999E+09, -9.999E+09, -9.999E+09, -9.999E+09, -9.999E+09, -9.999E+09, -9.999E+09, -9.999E+09, -9.999E+09, -9.999E+09, -9.999E+09, -9.999E+09, -9.999E+09, -9.999E+09, -9.999E+09, 255
2019-305T01:40:16.742,   1,   3,   1,   120,   4,          0,     12.920,  47484.605,    40.837,    -7.715,    23.978,   318.457, 3, 1.000E+00,  1.00,  78,  2.309E-02,  7.195E-03, -9.999E+09, -9.999E+09, -9.999E+09, -9.999E+09, -9.999E+09, -9.999E+09, -9.999E+09, -9.999E+09, -9.999E+09, -9.999E+09, -9.999E+09, -9.999E+09, -9.999E+09, -9.999E+09, -9.999E+09, -9.999E+09, 255
2019-305T01:42:16.744,   1,   3,   1,   120,   4,          0,     12.920,  47484.605,    40.825,    -7.712,    23.978,   317.247, 3, 1.000E+00,  1.00,  78,  3.093E-02,  7.204E-03, -9.999E+09, -9.999E+09, -9.999E+09, -9.999E+09, -9.999E+09, -9.999E+09, -9.999E+09, -9.999E+09, -9.999E+09, -9.999E+09, -9.999E+09, -9.999E+09, -9.999E+09, -9.999E+09, -9.999E+09, -9.999E+09, 255
2019-305T01:44:16.745,   1,   3,   1,   120,   4,          0,     12.920,  47484.605,    40.812,    -7.708,    23.978,   316.037, 3, 1.000E+00,  1.00,  78,  2.542E-02,  7.199E-03, -9.999E+09, -9.999E+09, -9.999E+09, -9.999E+09, -9.999E+09, -9.999E+09, -9.999E+09, -9.999E+09, -9.999E+09, -9.999E+09, -9.999E+09, -9.999E+09, -9.999E+09, -9.999E+09, -9.999E+09, -9.999E+09, 255
2019-305T01:46:16.747,   1,   3,   1,   120,   4,          0,     12.920,  47484.605,    40.800,    -7.705,    23.978,   314.827, 3, 1.000E+00,  1.00,  78,  2.798E-02,  7.200E-03, -9.999E+09, -9.999E+09, -9.999E+09, -9.999E+09, -9.999E+09, -9.999E+09, -9.999E+09, -9.999E+09, -9.999E+09, -9.999E+09, -9.999E+09, -9.999E+09, -9.999E+09, -9.999E+09, -9.999E+09, -9.999E+09, 255
2019-305T01:48:16.748,   1,   3,   1,   120,   4,          0,     12.920,  47484.605,    40.788,    -7.702,    23.978,   313.617, 3, 1.000E+00,  1.00,  78,  2.126E-02,  7.194E-03, -9.999E+09, -9.999E+09, -9.999E+09, -9.999E+09, -9.999E+09, -9.999E+09, -9.999E+09, -9.999E+09, -9.999E+09, -9.999E+09, -9.999E+09, -9.999E+09, -9.999E+09, -9.999E+09, -9.999E+09, -9.999E+09, 255
2019-305T01:50:16.749,   1,   3,   1,   120,   4,          0,     12.920,  47484.605,    40.776,    -7.698,    23.978,   312.406, 3, 1.000E+00,  1.00,  78,  1.577E-02,  7.191E-03, -9.999E+09, -9.999E+09, -9.999E+09, -9.999E+09, -9.999E+09, -9.999E+09, -9.999E+09, -9.999E+09, -9.999E+09, -9.999E+09, -9.999E+09, -9.999E+09, -9.999E+09, -9.999E+09, -9.999E+09, -9.999E+09, 255
2019-305T01:52:16.751,   1,   3,   1,   120,   4,          0,     12.920,  47484.605,    40.763,    -7.695,    23.977,   311.196, 3, 1.000E+00,  1.00,  78,  1.660E-02,  7.191E-03, -9.999E+09, -9.999E+09, -9.999E+09, -9.999E+09, -9.999E+09, -9.999E+09, -9.999E+09, -9.999E+09, -9.999E+09, -9.999E+09, -9.999E+09, -9.999E+09, -9.999E+09, -9.999E+09, -9.999E+09, -9.999E+09, 255
2019-305T01:54:16.752,   1,   3,   1,   120,   4,          0,     12.920,  47484.605,    40.751,    -7.692,    23.977,   309.986, 3, 1.000E+00,  1.00,  78,  1.608E-02,  7.192E-03, -9.999E+09, -9.999E+09, -9.999E+09, -9.999E+09, -9.999E+09, -9.999E+09, -9.999E+09, -9.999E+09, -9.999E+09, -9.999E+09, -9.999E+09, -9.999E+09, -9.999E+09, -9.999E+09, -9.999E+09, -9.999E+09, 255
2019-305T01:56:16.753,   1,   3,   1,   120,   4,          0,     12.920,  47484.605,    40.739,    -7.688,    23.977,   308.776, 3, 1.000E+00,  1.00,  78,  1.774E-02,  7.192E-03, -9.999E+09, -9.999E+09, -9.999E+09, -9.999E+09, -9.999E+09, -9.999E+09, -9.999E+09, -9.999E+09, -9.999E+09, -9.999E+09, -9.999E+09, -9.999E+09, -9.999E+09, -9.999E+09, -9.999E+09, -9.999E+09, 255
2019-305T01:58:16.755,   1,   3,   1,   120,   4,          0,     12.920,  47484.605,    40.726,    -7.685,    23.977,   307.566, 3, 1.000E+00,  1.00,  78,  2.128E-02,  7.193E-03, -9.999E+09, -9.999E+09, -9.999E+09, -9.999E+09, -9.999E+09, -9.999E+09, -9.999E+09, -9.999E+09, -9.999E+09, -9.999E+09, -9.999E+09, -9.999E+09, -9.999E+09, -9.999E+09, -9.999E+09, -9.999E+09, 255
2019-305T02:00:16.756,   1,   3,   1,   120,   4,          0,     12.920,  47484.605,    40.714,    -7.682,    23.977,   306.356, 3, 1.000E+00,  1.00,  78,  2.064E-02,  7.193E-03, -9.999E+09, -9.999E+09, -9.999E+09, -9.999E+09, -9.999E+09, -9.999E+09, -9.999E+09, -9.999E+09, -9.999E+09, -9.999E+09, -9.999E+09, -9.999E+09, -9.999E+09, -9.999E+09, -9.999E+09, -9.999E+09, 255
2019-305T02:02:16.758,   1,   3,   1,   120,   4,          0,     12.920,  47484.605,    40.702,    -7.678,    23.977,   305.146, 3, 1.000E+00,  1.00,  78,  2.002E-02,  7.193E-03, -9.999E+09, -9.999E+09, -9.999E+09, -9.999E+09, -9.999E+09, -9.999E+09, -9.999E+09, -9.999E+09, -9.999E+09, -9.999E+09, -9.999E+09, -9.999E+09, -9.999E+09, -9.999E+09, -9.999E+09, -9.999E+09, 255
2019-305T02:04:16.759,   1,   3,   1,   120,   4,          0,     12.920,  47484.605,    40.690,    -7.675,    23.977,   303.936, 3, 1.000E+00,  1.00,  78,  2.119E-02,  7.194E-03, -9.999E+09, -9.999E+09, -9.999E+09, -9.999E+09, -9.999E+09, -9.999E+09, -9.999E+09, -9.999E+09, -9.999E+09, -9.999E+09, -9.999E+09, -9.999E+09, -9.999E+09, -9.999E+09, -9.999E+09, -9.999E+09, 255
2019-305T02:06:16.760,   1,   3,   1,   120,   4,          0,     12.920,  47484.605,    40.677,    -7.671,    23.977,   302.726, 3, 1.000E+00,  1.00,  78,  3.580E-02,  7.205E-03, -9.999E+09, -9.999E+09, -9.999E+09, -9.999E+09, -9.999E+09, -9.999E+09, -9.999E+09, -9.999E+09, -9.999E+09, -9.999E+09, -9.999E+09, -9.999E+09, -9.999E+09, -9.999E+09, -9.999E+09, -9.999E+09, 255